Weather History for KSTE - October, 2012

Change the Weather History Date:

Tuesday, October 23, 2012

  Actual Average Record
Temperature  
Mean Temperature 52 °F -  
Max Temperature 58 °F 55 °F 79 °F (1963)
Min Temperature 46 °F 36 °F 15 °F (1969)
Degree Days  
Heating Degree Days 14    
Growing Degree Days 2 (Base 50)    
Moisture  
Dew Point 51 °F    
Average Humidity 97    
Maximum Humidity 100    
Minimum Humidity 90    
Precipitation  
Precipitation 0.15 in - - ()
Sea Level Pressure  
Sea Level Pressure 29.89 in    
Wind  
Wind Speed 7 mph (ESE)    
Max Wind Speed 10 mph    
Max Gust Speed -    
Visibility 4 miles    
Events Fog , Rain , Thunderstorm    
Averages and records for this station are not official NWS values.
T = Trace of Precipitation, MM = Missing Value Source: NWS Daily Summary

Daily Weather History Graph

Daily Weather History Graph

Search for Another Location

Airport or City:

Trip Planner

Search our weather history database for the weather conditions in past years. The results will help you decide how hot, cold, wet, or windy it might be!

Date:

Astronomy

Oct. 23, 2012 Rise Set
Actual Time 7:24 AM CDT 5:59 PM CDT
Civil Twilight 6:54 AM CDT 6:29 PM CDT
Nautical Twilight 6:20 AM CDT 7:03 PM CDT
Astronomical Twilight 5:46 AM CDT 7:37 PM CDT
Moon 2:55 PM CDT (10/23) 1:02 AM CDT (10/23)
Length of Visible Light 11h 34m
Length of Day
10h 35m
Waxing Gibbous, 67% of the Moon is Illuminated
Oct 23
Waxing Gibbous
Oct 29
Full
Nov 6
Last Quarter
Nov 13
New
Nov 20
First Quarter

Hourly Weather History & Observations

Time (CDT) Temp. Dew Point Humidity Pressure Visibility Wind Dir Wind Speed Gust Speed Precip Events Conditions
12:15 AM 50.0 °F 49.5 °F 98% 29.97 in 2.5 mi ENE 6.9 mph - N/A   Overcast
12:35 AM 50.0 °F 49.5 °F 98% 29.96 in 3.0 mi ENE 5.8 mph - N/A   Overcast
12:55 AM 50.2 °F 49.3 °F 97% 29.96 in 4.0 mi ENE 5.8 mph - N/A   Overcast
1:35 AM 50.2 °F 49.1 °F 96% 29.95 in 5.0 mi ENE 6.9 mph - N/A   Overcast
1:55 AM 50.2 °F 48.7 °F 95% 29.95 in 5.0 mi ENE 3.5 mph - N/A   Overcast
2:35 AM 50.4 °F 48.2 °F 92% 29.93 in 7.0 mi ENE 6.9 mph - N/A   Overcast
2:55 AM 49.5 °F 47.5 °F 93% 29.93 in 10.0 mi ENE 6.9 mph - N/A   Scattered Clouds
3:15 AM 49.3 °F 46.9 °F 92% 29.92 in 10.0 mi ENE 5.8 mph - N/A   Scattered Clouds
3:55 AM 48.6 °F 46.4 °F 92% 29.91 in 10.0 mi ENE 6.9 mph - N/A   Scattered Clouds
4:15 AM 48.6 °F 45.7 °F 90% 29.91 in 10.0 mi East 5.8 mph - N/A   Clear
4:55 AM 47.5 °F 44.8 °F 90% 29.93 in 10.0 mi East 4.6 mph - N/A   Scattered Clouds
5:15 AM 46.8 °F 44.6 °F 92% 29.93 in 10.0 mi East 6.9 mph - N/A   Clear
5:35 AM 46.9 °F 44.6 °F 92% 29.93 in 10.0 mi East 6.9 mph - N/A   Scattered Clouds
5:55 AM 46.6 °F 44.6 °F 93% 29.93 in 10.0 mi East 10.4 mph - N/A   Scattered Clouds
6:35 AM 47.3 °F 44.8 °F 91% 29.94 in 10.0 mi East 3.5 mph - N/A   Overcast
6:55 AM 47.3 °F 45.0 °F 92% 29.94 in 10.0 mi East 5.8 mph - N/A   Overcast
7:35 AM 47.5 °F 45.5 °F 93% 29.93 in 10.0 mi East 8.1 mph - N/A   Overcast
7:55 AM 47.5 °F 45.5 °F 93% 29.93 in 7.0 mi East 8.1 mph - N/A   Overcast
8:15 AM 47.5 °F 45.5 °F 93% 29.93 in 5.0 mi East 8.1 mph - N/A   Overcast
8:35 AM 47.5 °F 45.9 °F 94% 29.93 in 5.0 mi East 8.1 mph - N/A   Overcast
9:15 AM 48.2 °F 46.4 °F 93% 29.93 in 5.0 mi East 6.9 mph - N/A   Overcast
10:15 AM 49.1 °F 46.8 °F 92% 29.93 in 5.0 mi ESE 8.1 mph - N/A   Overcast
10:55 AM 49.1 °F 47.3 °F 93% 29.91 in 4.0 mi ESE 8.1 mph - N/A   Overcast
11:15 AM 49.1 °F 47.8 °F 95% 29.91 in 3.0 mi ESE 8.1 mph - N/A   Overcast
11:35 AM 49.6 °F 48.7 °F 97% 29.90 in 2.0 mi East 10.4 mph - N/A   Overcast
11:55 AM 50.4 °F 49.1 °F 95% 29.90 in 2.5 mi ESE 6.9 mph - N/A   Overcast
12:15 PM 50.9 °F 49.5 °F 95% 29.89 in 3.0 mi ESE 8.1 mph - N/A   Overcast
12:35 PM 51.1 °F 50.0 °F 96% 29.89 in 1.2 mi SE 6.9 mph - 0.12 in Rain Heavy Rain
12:55 PM 51.8 °F 51.1 °F 97% 29.89 in 2.0 mi SE 6.9 mph - 0.12 in Thunderstorm Overcast
1:15 PM 51.8 °F 51.1 °F 97% 29.88 in 2.0 mi ESE 6.9 mph - N/A   Overcast
1:35 PM 52.2 °F 51.6 °F 98% 29.87 in 2.0 mi ESE 4.6 mph - N/A   Overcast
1:55 PM 52.5 °F 51.8 °F 97% 29.87 in 1.8 mi ESE 4.6 mph - N/A   Overcast
2:35 PM 52.7 °F 52.2 °F 98% 29.86 in 1.0 mi SE 6.9 mph - 0.01 in   Overcast
2:55 PM 52.9 °F 52.7 °F 99% 29.85 in 0.8 mi ESE 5.8 mph - 0.01 in   Overcast
3:15 PM 53.1 °F 52.9 °F 99% 29.84 in 0.5 mi ESE 6.9 mph - N/A Fog Fog
3:35 PM 53.6 °F 53.4 °F 99% 29.84 in 0.5 mi ESE 6.9 mph - N/A Fog Fog
3:55 PM 54.0 °F 54.0 °F 100% 29.84 in 0.5 mi SE 6.9 mph - N/A Fog Fog
4:15 PM 54.5 °F 54.1 °F 99% 29.84 in 0.5 mi ESE 4.6 mph - N/A Fog Fog
4:35 PM 54.5 °F 54.3 °F 99% 29.84 in 0.5 mi ESE 6.9 mph - N/A Fog Fog
4:55 PM 54.5 °F 54.5 °F 100% 29.84 in 0.5 mi ESE 6.9 mph - N/A Fog Fog
5:15 PM 54.7 °F 54.7 °F 100% 29.84 in 0.5 mi ESE 6.9 mph - N/A Fog Fog
5:35 PM 54.9 °F 54.9 °F 100% 29.84 in 0.5 mi ESE 8.1 mph - N/A Fog Fog
5:55 PM 55.2 °F 55.2 °F 100% 29.85 in 0.8 mi ESE 8.1 mph - N/A   Overcast
6:15 PM 55.4 °F 55.4 °F 100% 29.85 in 1.5 mi ESE 6.9 mph - N/A   Overcast
6:35 PM 55.8 °F 55.8 °F 100% 29.86 in 1.8 mi SE 6.9 mph - N/A   Overcast
6:55 PM 55.9 °F 55.8 °F 99% 29.87 in 1.2 mi ESE 5.8 mph - N/A   Overcast
7:15 PM 55.9 °F 55.8 °F 99% 29.87 in 1.2 mi ESE 5.8 mph - N/A   Overcast
7:35 PM 56.3 °F 56.1 °F 99% 29.88 in 1.2 mi ESE 5.8 mph - N/A   Overcast
7:55 PM 56.3 °F 56.3 °F 100% 29.88 in 1.8 mi ESE 5.8 mph - N/A   Overcast
8:15 PM 56.5 °F 56.3 °F 99% 29.87 in 1.8 mi ESE 9.2 mph - N/A Rain Light Rain
8:35 PM 56.7 °F 56.7 °F 100% 29.87 in 1.0 mi ESE 6.9 mph - N/A   Overcast
8:55 PM 56.8 °F 56.8 °F 100% 29.86 in 0.8 mi ESE 9.2 mph - N/A   Overcast
9:15 PM 57.2 °F 57.2 °F 100% 29.87 in 0.8 mi SE 3.5 mph - N/A   Overcast
9:35 PM 57.4 °F 57.4 °F 100% 29.87 in 1.2 mi SE 5.8 mph - N/A   Overcast
9:55 PM 57.6 °F 57.6 °F 100% 29.86 in 1.0 mi ESE 4.6 mph - N/A   Overcast
10:15 PM 57.6 °F 57.6 °F 100% 29.87 in 1.0 mi SE 5.8 mph - N/A   Overcast
10:35 PM 57.7 °F 57.7 °F 100% 29.87 in 1.0 mi ESE 6.9 mph - N/A   Overcast
10:55 PM 57.6 °F 57.6 °F 100% 29.88 in 0.8 mi SE 4.6 mph - N/A   Overcast
11:15 PM 57.4 °F 57.4 °F 100% 29.88 in 0.5 mi SE 3.5 mph - N/A Rain Light Rain
11:35 PM 57.4 °F 57.4 °F 100% 29.85 in 0.5 mi ESE 8.1 mph - 0.02 in Rain Light Rain
11:55 PM 57.2 °F 57.2 °F 100% 29.86 in 0.5 mi ESE 6.9 mph - 0.02 in   Light Drizzle